User: anonymous   Login
Location: Decatur(IL)
(39.8400°N, 88.9550°W)
Time: 15:37:49
(UTC-05:00)
Language:

Cosmos 2242 Rocket - Orbit

View from above orbital plane
View from above orbital plane
View from above satellite
View from above satellite

Ground track
Ground track

The orbit data is extracted from the following two-line orbital elements,

1 22627U 93024B   17145.54716321 +.00000062 +00000-0 +53206-5 0  9993
2 22627 082.5208 121.1580 0024718 047.5115 084.5942 14.78078167298807
Epoch (UTC): 25 May 2017 13:07:54
Eccentricity: 0.0024718
inclination: 82.5208°
perigee height: 618 km
apogee height: 653 km
right ascension of ascending node: 121.1580°
argument of perigee: 47.5115°
revolutions per day: 14.78078167
mean anomaly at epoch: 84.5942°
orbit number at epoch: 29880

The dashed part of the orbit path shows where the satellite is in the earth's shadow,  

DLR